Time,TemperatureF,DewpointF,PressureIn,WindDirection,WindDirectionDegrees,WindSpeedMPH,WindSpeedGustMPH,Humidity,HourlyPrecipIn,Conditions,Clouds,dailyrainin,SolarRadiationWatts/m^2,SoftwareType,DateUTC
2013-07-17 00:05:00,77.4,73.2,30.29,SSW,201,0.0,0.0,87,0.00,,,0.00,0,Wunderground v.1.15,2013-07-17 05:05:00,
2013-07-17 00:11:00,77.0,73.2,30.29,SSW,201,0.0,0.0,88,0.00,,,0.00,0,Wunderground v.1.15,2013-07-17 05:11:00,
2013-07-17 00:16:00,76.7,73.2,30.29,SSW,201,0.0,1.0,89,0.00,,,0.00,0,Wunderground v.1.15,2013-07-17 05:16:00,
2013-07-17 00:21:00,76.7,73.5,30.30,SSW,201,0.0,0.0,90,0.00,,,0.00,0,Wunderground v.1.15,2013-07-17 05:21:00,
2013-07-17 00:27:00,76.9,73.7,30.30,SSW,202,3.0,4.0,90,0.00,,,0.00,0,Wunderground v.1.15,2013-07-17 05:27:00,
2013-07-17 00:32:00,77.1,73.6,30.29,SSW,202,1.0,1.0,89,0.00,,,0.00,0,Wunderground v.1.15,2013-07-17 05:32:00,
2013-07-17 00:38:00,77.3,73.8,30.29,SSW,202,4.0,4.0,89,0.00,,,0.00,0,Wunderground v.1.15,2013-07-17 05:38:00,
2013-07-17 00:44:00,77.4,73.9,30.29,SSW,202,0.0,1.0,89,0.00,,,0.00,0,Wunderground v.1.15,2013-07-17 05:44:00,
2013-07-17 00:49:00,77.5,73.7,30.29,SSW,202,0.0,1.0,88,0.00,,,0.00,0,Wunderground v.1.15,2013-07-17 05:49:00,
2013-07-17 00:55:00,77.4,73.6,30.29,SSW,202,0.0,0.0,88,0.00,,,0.00,0,Wunderground v.1.15,2013-07-17 05:55:00,
2013-07-17 01:00:00,77.3,73.5,30.29,SSW,202,0.0,0.0,88,0.00,,,0.00,0,Wunderground v.1.15,2013-07-17 06:00:00,
2013-07-17 01:06:00,77.2,73.7,30.29,SSW,202,0.0,0.0,89,0.00,,,0.00,0,Wunderground v.1.15,2013-07-17 06:06:00,
2013-07-17 01:11:00,77.1,73.6,30.29,SSW,202,0.0,0.0,89,0.00,,,0.00,0,Wunderground v.1.15,2013-07-17 06:11:00,
2013-07-17 01:16:00,77.1,73.6,30.29,SSW,202,0.0,1.0,89,0.00,,,0.00,0,Wunderground v.1.15,2013-07-17 06:16:00,
2013-07-17 01:21:00,77.0,73.5,30.29,SSW,202,1.0,1.0,89,0.00,,,0.00,0,Wunderground v.1.15,2013-07-17 06:21:00,
2013-07-17 01:27:00,77.0,73.5,30.29,SSW,202,2.0,2.0,89,0.00,,,0.00,0,Wunderground v.1.15,2013-07-17 06:27:00,
2013-07-17 01:33:00,76.9,73.4,30.29,SSW,202,1.0,1.0,89,0.00,,,0.00,0,Wunderground v.1.15,2013-07-17 06:33:00,
2013-07-17 01:39:00,76.9,73.7,30.29,SSW,202,0.0,1.0,90,0.00,,,0.00,0,Wunderground v.1.15,2013-07-17 06:39:00,
2013-07-17 01:44:00,76.8,73.6,30.29,SSW,202,2.0,2.0,90,0.00,,,0.00,0,Wunderground v.1.15,2013-07-17 06:44:00,
2013-07-17 01:50:00,76.8,73.3,30.28,SSW,202,1.0,1.0,89,0.00,,,0.00,0,Wunderground v.1.15,2013-07-17 06:50:00,
2013-07-17 01:55:00,76.6,73.1,30.28,SSW,202,0.0,1.0,89,0.00,,,0.00,0,Wunderground v.1.15,2013-07-17 06:55:00,
2013-07-17 02:00:00,76.4,72.9,30.28,SSW,202,0.0,0.0,89,0.00,,,0.00,0,Wunderground v.1.15,2013-07-17 07:00:00,
2013-07-17 02:05:00,76.3,73.1,30.29,SSW,202,0.0,1.0,90,0.00,,,0.00,0,Wunderground v.1.15,2013-07-17 07:05:00,
2013-07-17 02:10:00,76.2,73.1,30.29,SSW,202,0.0,2.0,90,0.00,,,0.00,0,Wunderground v.1.15,2013-07-17 07:10:00,
2013-07-17 02:15:00,76.1,73.0,30.28,SSW,202,0.0,3.0,90,0.00,,,0.00,0,Wunderground v.1.15,2013-07-17 07:15:00,
2013-07-17 02:20:00,76.1,73.3,30.28,SSW,202,4.0,4.0,91,0.00,,,0.00,0,Wunderground v.1.15,2013-07-17 07:20:00,
2013-07-17 02:25:00,76.1,73.3,30.28,SSW,203,1.0,4.0,91,0.00,,,0.00,0,Wunderground v.1.15,2013-07-17 07:25:00,
2013-07-17 02:30:00,76.2,73.4,30.29,SSW,202,1.0,3.0,91,0.00,,,0.00,0,Wunderground v.1.15,2013-07-17 07:30:00,
2013-07-17 02:35:00,76.3,73.5,30.29,SSW,204,3.0,5.0,91,0.00,,,0.00,0,Wunderground v.1.15,2013-07-17 07:35:00,
2013-07-17 02:40:00,76.4,73.6,30.29,SSW,204,4.0,4.0,91,0.00,,,0.00,0,Wunderground v.1.15,2013-07-17 07:40:00,
2013-07-17 02:45:00,76.4,73.6,30.29,SSW,205,1.0,4.0,91,0.00,,,0.00,0,Wunderground v.1.15,2013-07-17 07:45:00,
2013-07-17 02:50:00,76.5,73.3,30.29,SSW,205,5.0,5.0,90,0.00,,,0.00,0,Wunderground v.1.15,2013-07-17 07:50:00,
2013-07-17 02:55:00,76.5,73.3,30.29,SSW,205,1.0,5.0,90,0.00,,,0.00,0,Wunderground v.1.15,2013-07-17 07:55:00,
2013-07-17 03:00:00,76.4,73.2,30.29,SSW,205,0.0,1.0,90,0.00,,,0.00,0,Wunderground v.1.15,2013-07-17 08:00:00,
2013-07-17 03:05:00,76.3,73.5,30.29,SSW,205,0.0,2.0,91,0.00,,,0.00,0,Wunderground v.1.15,2013-07-17 08:05:00,
2013-07-17 03:10:00,76.3,73.5,30.29,SSW,205,1.0,1.0,91,0.00,,,0.00,0,Wunderground v.1.15,2013-07-17 08:10:00,
2013-07-17 03:15:00,76.2,73.4,30.29,SSW,205,0.0,4.0,91,0.00,,,0.00,0,Wunderground v.1.15,2013-07-17 08:15:00,
2013-07-17 03:21:00,76.2,73.4,30.29,SSW,205,0.0,1.0,91,0.00,,,0.00,0,Wunderground v.1.15,2013-07-17 08:21:00,
2013-07-17 03:26:00,76.1,73.3,30.29,SSW,205,0.0,1.0,91,0.00,,,0.00,0,Wunderground v.1.15,2013-07-17 08:26:00,
2013-07-17 03:31:00,76.0,73.2,30.29,SSW,208,0.0,2.0,91,0.00,,,0.00,0,Wunderground v.1.15,2013-07-17 08:31:00,
2013-07-17 03:36:00,76.0,73.2,30.29,SSW,208,4.0,4.0,91,0.00,,,0.00,0,Wunderground v.1.15,2013-07-17 08:36:00,
2013-07-17 03:41:00,76.0,73.2,30.29,SSW,208,1.0,4.0,91,0.00,,,0.00,0,Wunderground v.1.15,2013-07-17 08:41:00,
2013-07-17 03:46:00,76.1,73.3,30.29,SSW,208,1.0,6.0,91,0.00,,,0.00,0,Wunderground v.1.15,2013-07-17 08:46:00,
2013-07-17 03:51:00,76.1,73.3,30.29,SSW,208,1.0,2.0,91,0.00,,,0.00,0,Wunderground v.1.15,2013-07-17 08:51:00,
2013-07-17 03:56:00,76.0,73.2,30.29,SSW,208,0.0,2.0,91,0.00,,,0.00,0,Wunderground v.1.15,2013-07-17 08:56:00,
2013-07-17 04:01:00,76.0,73.2,30.29,SSW,208,2.0,2.0,91,0.00,,,0.00,0,Wunderground v.1.15,2013-07-17 09:01:00,
2013-07-17 04:06:00,76.0,73.2,30.29,SSW,208,1.0,4.0,91,0.00,,,0.00,0,Wunderground v.1.15,2013-07-17 09:06:00,
2013-07-17 04:11:00,76.0,73.2,30.29,SSW,208,0.0,1.0,91,0.00,,,0.00,0,Wunderground v.1.15,2013-07-17 09:11:00,
2013-07-17 04:16:00,76.0,72.9,30.30,SSW,208,0.0,4.0,90,0.00,,,0.00,0,Wunderground v.1.15,2013-07-17 09:16:00,
2013-07-17 04:21:00,76.1,73.0,30.30,SSW,208,0.0,1.0,90,0.00,,,0.00,0,Wunderground v.1.15,2013-07-17 09:21:00,
2013-07-17 04:27:00,76.1,73.0,30.30,SSW,208,0.0,1.0,90,0.00,,,0.00,0,Wunderground v.1.15,2013-07-17 09:27:00,
2013-07-17 04:32:00,76.1,73.0,30.30,SSW,208,0.0,1.0,90,0.00,,,0.00,0,Wunderground v.1.15,2013-07-17 09:32:00,
2013-07-17 04:37:00,76.1,73.0,30.30,SSW,208,0.0,2.0,90,0.00,,,0.00,0,Wunderground v.1.15,2013-07-17 09:37:00,
2013-07-17 04:42:00,76.1,73.0,30.30,SSW,208,0.0,0.0,90,0.00,,,0.00,0,Wunderground v.1.15,2013-07-17 09:42:00,
2013-07-17 04:47:00,76.0,72.9,30.29,SSW,208,0.0,4.0,90,0.00,,,0.00,0,Wunderground v.1.15,2013-07-17 09:47:00,
2013-07-17 04:52:00,76.0,72.9,30.30,SSW,208,0.0,4.0,90,0.00,,,0.00,0,Wunderground v.1.15,2013-07-17 09:52:00,
2013-07-17 04:57:00,75.9,72.8,30.30,SSW,208,3.0,4.0,90,0.00,,,0.00,0,Wunderground v.1.15,2013-07-17 09:57:00,
2013-07-17 05:02:00,75.9,72.8,30.30,SSW,208,0.0,3.0,90,0.00,,,0.00,0,Wunderground v.1.15,2013-07-17 10:02:00,
2013-07-17 05:07:00,75.8,72.7,30.30,SSW,208,1.0,3.0,90,0.00,,,0.00,0,Wunderground v.1.15,2013-07-17 10:07:00,
2013-07-17 05:12:00,75.7,72.6,30.30,SSW,208,0.0,2.0,90,0.00,,,0.00,0,Wunderground v.1.15,2013-07-17 10:12:00,
2013-07-17 05:17:00,75.6,72.8,30.30,SSW,208,2.0,4.0,91,0.00,,,0.00,0,Wunderground v.1.15,2013-07-17 10:17:00,
2013-07-17 05:22:00,75.4,72.6,30.31,SSW,208,0.0,4.0,91,0.00,,,0.00,0,Wunderground v.1.15,2013-07-17 10:22:00,
2013-07-17 05:27:00,75.4,72.6,30.30,SSW,208,1.0,4.0,91,0.00,,,0.00,0,Wunderground v.1.15,2013-07-17 10:27:00,
2013-07-17 05:32:00,75.3,72.5,30.30,SSW,208,2.0,5.0,91,0.00,,,0.00,5,Wunderground v.1.15,2013-07-17 10:32:00,
2013-07-17 05:37:00,75.3,72.8,30.30,SSW,208,2.0,5.0,92,0.00,,,0.00,7,Wunderground v.1.15,2013-07-17 10:37:00,
2013-07-17 05:42:00,75.2,72.7,30.30,SSW,208,0.0,2.0,92,0.00,,,0.00,9,Wunderground v.1.15,2013-07-17 10:42:00,
2013-07-17 05:47:00,75.2,72.7,30.30,SSW,208,0.0,4.0,92,0.00,,,0.00,12,Wunderground v.1.15,2013-07-17 10:47:00,
2013-07-17 05:52:00,75.1,72.6,30.30,SSW,208,1.0,2.0,92,0.00,,,0.00,14,Wunderground v.1.15,2013-07-17 10:52:00,
2013-07-17 05:57:00,75.1,72.6,30.31,SSW,208,2.0,2.0,92,0.00,,,0.00,18,Wunderground v.1.15,2013-07-17 10:57:00,
2013-07-17 06:02:00,75.1,72.9,30.31,SSW,208,1.0,3.0,93,0.00,,,0.00,19,Wunderground v.1.15,2013-07-17 11:02:00,
2013-07-17 06:07:00,75.2,73.0,30.31,SSW,208,1.0,4.0,93,0.00,,,0.00,21,Wunderground v.1.15,2013-07-17 11:07:00,
2013-07-17 06:12:00,75.3,73.1,30.31,SSW,208,2.0,3.0,93,0.00,,,0.00,25,Wunderground v.1.15,2013-07-17 11:12:00,
2013-07-17 06:17:00,75.3,73.1,30.31,SSW,208,0.0,3.0,93,0.00,,,0.00,26,Wunderground v.1.15,2013-07-17 11:17:00,
2013-07-17 06:22:00,75.4,73.2,30.31,SSW,208,2.0,5.0,93,0.00,,,0.00,30,Wunderground v.1.15,2013-07-17 11:22:00,
2013-07-17 06:27:00,75.5,73.7,30.31,SSW,208,2.0,5.0,94,0.00,,,0.00,32,Wunderground v.1.15,2013-07-17 11:27:00,
2013-07-17 06:32:00,75.5,73.7,30.31,SSW,208,4.0,4.0,94,0.00,,,0.00,33,Wunderground v.1.15,2013-07-17 11:32:00,
2013-07-17 06:37:00,75.7,73.8,30.31,SSW,208,2.0,4.0,94,0.00,,,0.00,37,Wunderground v.1.15,2013-07-17 11:37:00,
2013-07-17 06:42:00,75.8,73.9,30.31,SSW,208,1.0,5.0,94,0.00,,,0.00,37,Wunderground v.1.15,2013-07-17 11:42:00,
2013-07-17 06:47:00,76.0,74.1,30.31,SSW,207,0.0,5.0,94,0.00,,,0.00,39,Wunderground v.1.15,2013-07-17 11:47:00,
2013-07-17 06:52:00,76.2,74.3,30.31,SSW,202,4.0,5.0,94,0.00,,,0.00,51,Wunderground v.1.15,2013-07-17 11:52:00,
2013-07-17 06:57:00,76.5,74.3,30.32,South,189,3.0,7.0,93,0.00,,,0.00,54,Wunderground v.1.15,2013-07-17 11:57:00,
2013-07-17 07:02:00,76.7,74.5,30.32,South,186,4.0,6.0,93,0.00,,,0.00,54,Wunderground v.1.15,2013-07-17 12:02:00,
2013-07-17 07:07:00,76.9,74.4,30.32,South,187,3.0,6.0,92,0.00,,,0.00,51,Wunderground v.1.15,2013-07-17 12:07:00,
2013-07-17 07:12:00,77.1,74.6,30.32,SSW,201,5.0,6.0,92,0.00,,,0.00,60,Wunderground v.1.15,2013-07-17 12:12:00,
2013-07-17 07:17:00,77.3,74.8,30.32,SSW,211,3.0,6.0,92,0.00,,,0.00,58,Wunderground v.1.15,2013-07-17 12:17:00,
2013-07-17 07:22:00,77.6,75.1,30.32,SSW,210,4.0,7.0,92,0.00,,,0.00,69,Wunderground v.1.15,2013-07-17 12:22:00,
2013-07-17 07:27:00,77.9,75.1,30.32,SSW,196,1.0,7.0,91,0.00,,,0.00,84,Wunderground v.1.15,2013-07-17 12:27:00,
2013-07-17 07:32:00,78.1,75.3,30.32,SSW,196,2.0,4.0,91,0.00,,,0.00,58,Wunderground v.1.15,2013-07-17 12:32:00,
2013-07-17 07:38:00,78.3,75.1,30.32,South,172,4.0,7.0,90,0.00,,,0.00,62,Wunderground v.1.15,2013-07-17 12:38:00,
2013-07-17 07:43:00,78.6,75.4,30.32,South,180,3.0,6.0,90,0.00,,,0.00,294,Wunderground v.1.15,2013-07-17 12:43:00,
2013-07-17 07:48:00,78.9,75.7,30.32,South,182,4.0,6.0,90,0.00,,,0.00,302,Wunderground v.1.15,2013-07-17 12:48:00,
2013-07-17 07:53:00,79.3,75.8,30.32,South,175,4.0,5.0,89,0.00,,,0.00,322,Wunderground v.1.15,2013-07-17 12:53:00,
2013-07-17 07:58:00,79.6,75.7,30.32,South,182,5.0,7.0,88,0.00,,,0.00,330,Wunderground v.1.15,2013-07-17 12:58:00,
2013-07-17 08:03:00,80.0,76.1,30.32,South,184,4.0,6.0,88,0.00,,,0.00,350,Wunderground v.1.15,2013-07-17 13:03:00,
2013-07-17 08:08:00,80.2,76.0,30.32,South,177,6.0,7.0,87,0.00,,,0.00,376,Wunderground v.1.15,2013-07-17 13:08:00,
2013-07-17 08:13:00,80.6,76.0,30.32,South,175,5.0,6.0,86,0.00,,,0.00,388,Wunderground v.1.15,2013-07-17 13:13:00,
2013-07-17 08:18:00,81.0,76.4,30.33,South,178,0.0,7.0,86,0.00,,,0.00,406,Wunderground v.1.15,2013-07-17 13:18:00,
2013-07-17 08:23:00,81.3,76.4,30.33,South,186,2.0,5.0,85,0.00,,,0.00,501,Wunderground v.1.15,2013-07-17 13:23:00,
2013-07-17 08:28:00,81.4,75.4,30.33,WSW,245,6.0,10.0,82,0.00,,,0.00,211,Wunderground v.1.15,2013-07-17 13:28:00,
2013-07-17 08:33:00,81.3,75.3,30.33,SSW,211,6.0,8.0,82,0.00,,,0.00,109,Wunderground v.1.15,2013-07-17 13:33:00,
2013-07-17 08:38:00,81.3,75.3,30.33,SW,229,3.0,8.0,82,0.00,,,0.00,459,Wunderground v.1.15,2013-07-17 13:38:00,
2013-07-17 08:43:00,81.5,75.5,30.32,SW,218,5.0,6.0,82,0.00,,,0.00,478,Wunderground v.1.15,2013-07-17 13:43:00,
2013-07-17 08:48:00,81.9,75.9,30.32,SSW,199,7.0,7.0,82,0.00,,,0.00,483,Wunderground v.1.15,2013-07-17 13:48:00,
2013-07-17 08:53:00,82.2,76.2,30.32,SW,225,5.0,6.0,82,0.00,,,0.00,503,Wunderground v.1.15,2013-07-17 13:53:00,
2013-07-17 08:58:00,82.5,75.7,30.32,WSW,237,2.0,7.0,80,0.00,,,0.00,513,Wunderground v.1.15,2013-07-17 13:58:00,
2013-07-17 09:03:00,82.7,75.9,30.32,WSW,250,4.0,7.0,80,0.00,,,0.00,529,Wunderground v.1.15,2013-07-17 14:03:00,
2013-07-17 09:09:00,82.8,75.6,30.32,SSW,204,5.0,10.0,79,0.00,,,0.00,543,Wunderground v.1.15,2013-07-17 14:09:00,
2013-07-17 09:13:00,83.0,75.4,30.33,SW,234,10.0,10.0,78,0.00,,,0.00,557,Wunderground v.1.15,2013-07-17 14:13:00,
2013-07-17 09:18:00,83.1,75.9,30.32,SW,235,7.0,11.0,79,0.00,,,0.00,570,Wunderground v.1.15,2013-07-17 14:18:00,
2013-07-17 09:24:00,83.2,76.0,30.32,WSW,240,6.0,7.0,79,0.00,,,0.00,582,Wunderground v.1.15,2013-07-17 14:24:00,
2013-07-17 09:29:00,83.3,76.1,30.32,SW,234,3.0,10.0,79,0.00,,,0.00,598,Wunderground v.1.15,2013-07-17 14:29:00,
2013-07-17 09:34:00,83.4,76.2,30.32,WSW,242,4.0,6.0,79,0.00,,,0.00,606,Wunderground v.1.15,2013-07-17 14:34:00,
2013-07-17 09:39:00,83.7,76.1,30.32,SSW,202,4.0,8.0,78,0.00,,,0.00,621,Wunderground v.1.15,2013-07-17 14:39:00,
2013-07-17 09:44:00,83.9,76.3,30.32,SW,223,5.0,7.0,78,0.00,,,0.00,633,Wunderground v.1.15,2013-07-17 14:44:00,
2013-07-17 09:49:00,84.1,76.1,30.31,SSW,212,4.0,9.0,77,0.00,,,0.00,645,Wunderground v.1.15,2013-07-17 14:49:00,
2013-07-17 09:54:00,84.3,75.9,30.31,SW,232,5.0,7.0,76,0.00,,,0.00,659,Wunderground v.1.15,2013-07-17 14:54:00,
2013-07-17 09:59:00,84.5,76.9,30.31,SW,229,5.0,10.0,78,0.00,,,0.00,671,Wunderground v.1.15,2013-07-17 14:59:00,
2013-07-17 10:04:00,84.7,75.9,30.31,WSW,237,5.0,7.0,75,0.00,,,0.00,684,Wunderground v.1.15,2013-07-17 15:04:00,
2013-07-17 10:09:00,84.9,76.5,30.31,SW,227,6.0,9.0,76,0.00,,,0.00,700,Wunderground v.1.15,2013-07-17 15:09:00,
2013-07-17 10:14:00,85.1,76.3,30.31,WSW,254,2.0,7.0,75,0.00,,,0.00,712,Wunderground v.1.15,2013-07-17 15:14:00,
2013-07-17 10:19:00,85.3,76.1,30.31,WSW,246,5.0,8.0,74,0.00,,,0.00,719,Wunderground v.1.15,2013-07-17 15:19:00,
2013-07-17 10:24:00,85.5,76.7,30.31,WSW,237,6.0,8.0,75,0.00,,,0.00,728,Wunderground v.1.15,2013-07-17 15:24:00,
2013-07-17 10:29:00,85.6,75.5,30.31,WSW,244,3.0,10.0,72,0.00,,,0.00,738,Wunderground v.1.15,2013-07-17 15:29:00,
2013-07-17 10:34:00,85.7,76.0,30.31,WSW,240,2.0,11.0,73,0.00,,,0.00,749,Wunderground v.1.15,2013-07-17 15:34:00,
2013-07-17 10:39:00,85.8,76.1,30.31,SSW,199,6.0,11.0,73,0.00,,,0.00,756,Wunderground v.1.15,2013-07-17 15:39:00,
2013-07-17 10:44:00,86.1,76.8,30.31,SSW,207,5.0,9.0,74,0.00,,,0.00,765,Wunderground v.1.15,2013-07-17 15:44:00,
2013-07-17 10:49:00,86.2,76.5,30.31,West,261,5.0,5.0,73,0.00,,,0.00,777,Wunderground v.1.15,2013-07-17 15:49:00,
2013-07-17 10:54:00,86.4,76.3,30.31,WSW,258,2.0,9.0,72,0.00,,,0.00,789,Wunderground v.1.15,2013-07-17 15:54:00,
2013-07-17 10:59:00,86.6,76.5,30.31,SW,233,5.0,5.0,72,0.00,,,0.00,798,Wunderground v.1.15,2013-07-17 15:59:00,
2013-07-17 11:05:00,86.9,77.2,30.30,SSW,207,5.0,8.0,73,0.00,,,0.00,740,Wunderground v.1.15,2013-07-17 16:05:00,
2013-07-17 11:10:00,86.9,75.9,30.31,SSW,207,4.0,5.0,70,0.00,,,0.00,812,Wunderground v.1.15,2013-07-17 16:10:00,
2013-07-17 11:15:00,87.1,77.0,30.30,SW,222,6.0,9.0,72,0.00,,,0.00,823,Wunderground v.1.15,2013-07-17 16:15:00,
2013-07-17 11:20:00,87.2,76.6,30.30,SSW,209,1.0,4.0,71,0.00,,,0.00,830,Wunderground v.1.15,2013-07-17 16:20:00,
2013-07-17 11:25:00,87.3,77.6,30.30,SSW,196,4.0,9.0,73,0.00,,,0.00,837,Wunderground v.1.15,2013-07-17 16:25:00,
2013-07-17 11:30:00,87.5,77.8,30.30,South,184,4.0,5.0,73,0.00,,,0.00,858,Wunderground v.1.15,2013-07-17 16:30:00,
2013-07-17 11:35:00,87.8,77.6,30.30,South,188,4.0,10.0,72,0.00,,,0.00,863,Wunderground v.1.15,2013-07-17 16:35:00,
2013-07-17 11:40:00,88.0,77.4,30.30,SSE,166,6.0,8.0,71,0.00,,,0.00,891,Wunderground v.1.15,2013-07-17 16:40:00,
2013-07-17 11:45:00,88.2,77.2,30.30,SSE,165,4.0,9.0,70,0.00,,,0.00,919,Wunderground v.1.15,2013-07-17 16:45:00,
2013-07-17 11:50:00,88.1,77.5,30.29,South,188,4.0,5.0,71,0.00,,,0.00,976,Wunderground v.1.15,2013-07-17 16:50:00,
2013-07-17 11:55:00,88.3,77.3,30.29,SSE,166,6.0,9.0,70,0.00,,,0.00,1020,Wunderground v.1.15,2013-07-17 16:55:00,
2013-07-17 12:00:00,88.4,77.8,30.29,South,173,8.0,9.0,71,0.00,,,0.00,1065,Wunderground v.1.15,2013-07-17 17:00:00,
2013-07-17 12:05:00,88.2,77.6,30.30,South,187,3.0,11.0,71,0.00,,,0.00,329,Wunderground v.1.15,2013-07-17 17:05:00,
2013-07-17 12:10:00,87.7,77.1,30.29,SSW,204,5.0,5.0,71,0.00,,,0.00,211,Wunderground v.1.15,2013-07-17 17:10:00,
2013-07-17 12:15:00,87.3,77.2,30.29,SSW,196,0.0,6.0,72,0.00,,,0.00,165,Wunderground v.1.15,2013-07-17 17:15:00,
2013-07-17 12:20:00,87.0,78.1,30.29,South,182,3.0,6.0,75,0.00,,,0.00,954,Wunderground v.1.15,2013-07-17 17:20:00,
2013-07-17 12:26:00,87.2,78.3,30.28,South,177,4.0,8.0,75,0.00,,,0.00,965,Wunderground v.1.15,2013-07-17 17:26:00,
2013-07-17 12:31:00,87.6,78.3,30.28,South,191,10.0,11.0,74,0.00,,,0.00,972,Wunderground v.1.15,2013-07-17 17:31:00,
2013-07-17 12:36:00,87.9,77.7,30.28,South,182,4.0,11.0,72,0.00,,,0.00,946,Wunderground v.1.15,2013-07-17 17:36:00,
2013-07-17 12:41:00,88.5,77.5,30.28,South,181,4.0,10.0,70,0.00,,,0.00,967,Wunderground v.1.15,2013-07-17 17:41:00,
2013-07-17 12:46:00,88.9,77.0,30.28,SSE,162,8.0,12.0,68,0.00,,,0.00,960,Wunderground v.1.15,2013-07-17 17:46:00,
2013-07-17 12:51:00,89.1,77.2,30.28,South,190,11.0,14.0,68,0.00,,,0.00,990,Wunderground v.1.15,2013-07-17 17:51:00,
2013-07-17 12:56:00,89.0,76.6,30.28,SSE,168,10.0,14.0,67,0.00,,,0.00,984,Wunderground v.1.15,2013-07-17 17:56:00,
2013-07-17 13:01:00,89.2,76.8,30.28,SSE,166,7.0,8.0,67,0.00,,,0.00,956,Wunderground v.1.15,2013-07-17 18:01:00,
2013-07-17 13:06:00,89.7,77.3,30.28,SSE,168,6.0,12.0,67,0.00,,,0.00,401,Wunderground v.1.15,2013-07-17 18:06:00,
2013-07-17 13:11:00,89.9,76.1,30.28,South,189,8.0,10.0,64,0.00,,,0.00,953,Wunderground v.1.15,2013-07-17 18:11:00,
2013-07-17 13:16:00,89.9,76.1,30.28,SSW,213,5.0,10.0,64,0.00,,,0.00,946,Wunderground v.1.15,2013-07-17 18:16:00,
2013-07-17 13:21:00,90.0,76.6,30.28,SSE,157,8.0,9.0,65,0.00,,,0.00,944,Wunderground v.1.15,2013-07-17 18:21:00,
2013-07-17 13:26:00,90.1,75.3,30.27,SSW,192,5.0,12.0,62,0.00,,,0.00,954,Wunderground v.1.15,2013-07-17 18:26:00,
2013-07-17 13:31:00,89.9,75.1,30.26,SSE,167,5.0,9.0,62,0.00,,,0.00,967,Wunderground v.1.15,2013-07-17 18:31:00,
2013-07-17 13:37:00,90.2,75.4,30.26,SSW,200,3.0,12.0,62,0.00,,,0.00,991,Wunderground v.1.15,2013-07-17 18:37:00,
2013-07-17 13:42:00,90.4,74.6,30.26,SW,221,8.0,10.0,60,0.00,,,0.00,1002,Wunderground v.1.15,2013-07-17 18:42:00,
2013-07-17 13:47:00,90.5,73.7,30.26,SSW,198,9.0,13.0,58,0.00,,,0.00,958,Wunderground v.1.15,2013-07-17 18:47:00,
2013-07-17 13:52:00,90.3,75.5,30.27,SSE,165,7.0,12.0,62,0.00,,,0.00,958,Wunderground v.1.15,2013-07-17 18:52:00,
2013-07-17 13:57:00,90.3,76.9,30.27,SSW,194,4.0,12.0,65,0.00,,,0.00,1125,Wunderground v.1.15,2013-07-17 18:57:00,
2013-07-17 14:02:00,90.4,74.6,30.27,NNE,31,2.0,8.0,60,0.00,,,0.00,336,Wunderground v.1.15,2013-07-17 19:02:00,
2013-07-17 14:07:00,89.3,75.0,30.26,NNW,338,1.0,8.0,63,0.00,,,0.00,353,Wunderground v.1.15,2013-07-17 19:07:00,
2013-07-17 14:12:00,87.5,73.8,30.26,North,355,1.0,5.0,64,0.00,,,0.00,306,Wunderground v.1.15,2013-07-17 19:12:00,
2013-07-17 14:17:00,86.8,75.8,30.26,NNW,342,0.0,5.0,70,0.00,,,0.00,1069,Wunderground v.1.15,2013-07-17 19:17:00,
2013-07-17 14:22:00,87.0,77.3,30.26,NNW,344,0.0,4.0,73,0.00,,,0.00,1078,Wunderground v.1.15,2013-07-17 19:22:00,
2013-07-17 14:27:00,87.8,76.4,30.25,NNW,342,0.0,4.0,69,0.00,,,0.00,1063,Wunderground v.1.15,2013-07-17 19:27:00,
2013-07-17 14:32:00,89.1,76.3,30.25,North,11,1.0,4.0,66,0.00,,,0.00,986,Wunderground v.1.15,2013-07-17 19:32:00,
2013-07-17 14:37:00,90.1,77.2,30.25,NNE,17,0.0,4.0,66,0.00,,,0.00,338,Wunderground v.1.15,2013-07-17 19:37:00,
2013-07-17 14:42:00,90.2,75.4,30.25,NNE,17,0.0,1.0,62,0.00,,,0.00,278,Wunderground v.1.15,2013-07-17 19:42:00,
2013-07-17 14:47:00,89.7,76.4,30.25,NNE,17,0.0,2.0,65,0.00,,,0.00,206,Wunderground v.1.15,2013-07-17 19:47:00,
2013-07-17 14:53:00,89.2,75.4,30.24,NNE,17,0.0,0.0,64,0.00,,,0.00,200,Wunderground v.1.15,2013-07-17 19:53:00,
2013-07-17 14:58:00,88.8,76.4,30.24,NNE,17,0.0,1.0,67,0.00,,,0.00,139,Wunderground v.1.15,2013-07-17 19:58:00,
2013-07-17 15:03:00,88.4,76.9,30.24,NNE,17,0.0,1.0,69,0.00,,,0.00,137,Wunderground v.1.15,2013-07-17 20:03:00,
2013-07-17 15:08:00,88.1,75.8,30.24,NNE,17,0.0,1.0,67,0.00,,,0.00,206,Wunderground v.1.15,2013-07-17 20:08:00,
2013-07-17 15:13:00,88.1,76.6,30.24,NNE,16,0.0,3.0,69,0.00,,,0.00,220,Wunderground v.1.15,2013-07-17 20:13:00,
2013-07-17 15:18:00,88.3,75.5,30.24,NNE,16,1.0,3.0,66,0.00,,,0.00,192,Wunderground v.1.15,2013-07-17 20:18:00,
2013-07-17 15:23:00,88.5,75.7,30.24,NNE,16,0.0,0.0,66,0.00,,,0.00,146,Wunderground v.1.15,2013-07-17 20:23:00,
2013-07-17 15:28:00,88.3,76.8,30.24,NNE,22,3.0,3.0,69,0.00,,,0.00,167,Wunderground v.1.15,2013-07-17 20:28:00,
2013-07-17 15:33:00,87.4,74.6,30.24,SW,215,5.0,18.0,66,0.00,,,0.00,141,Wunderground v.1.15,2013-07-17 20:33:00,
2013-07-17 15:38:00,86.3,74.5,30.24,SW,227,5.0,18.0,68,0.00,,,0.00,158,Wunderground v.1.15,2013-07-17 20:38:00,
2013-07-17 15:43:00,85.6,72.5,30.24,South,184,4.0,12.0,65,0.00,,,0.00,165,Wunderground v.1.15,2013-07-17 20:43:00,
2013-07-17 15:48:00,85.0,72.4,30.23,SW,214,7.0,12.0,66,0.00,,,0.00,178,Wunderground v.1.15,2013-07-17 20:48:00,
2013-07-17 15:53:00,84.7,72.5,30.23,SSW,200,4.0,10.0,67,0.00,,,0.00,190,Wunderground v.1.15,2013-07-17 20:53:00,
2013-07-17 15:58:00,84.5,73.2,30.24,SSW,200,0.0,10.0,69,0.00,,,0.00,193,Wunderground v.1.15,2013-07-17 20:58:00,
2013-07-17 16:03:00,84.5,73.2,30.24,SSW,201,2.0,5.0,69,0.00,,,0.00,199,Wunderground v.1.15,2013-07-17 21:03:00,
2013-07-17 16:08:00,84.5,74.1,30.24,SSW,201,0.0,5.0,71,0.00,,,0.00,200,Wunderground v.1.15,2013-07-17 21:08:00,
2013-07-17 16:13:00,84.6,73.7,30.24,SSW,204,4.0,6.0,70,0.00,,,0.00,204,Wunderground v.1.15,2013-07-17 21:13:00,
2013-07-17 16:18:00,84.6,74.6,30.24,SSW,205,2.0,6.0,72,0.00,,,0.00,250,Wunderground v.1.15,2013-07-17 21:18:00,
2013-07-17 16:23:00,84.8,73.9,30.24,SSW,205,0.0,2.0,70,0.00,,,0.00,329,Wunderground v.1.15,2013-07-17 21:23:00,
2013-07-17 16:28:00,85.1,74.6,30.24,SSW,205,1.0,4.0,71,0.00,,,0.00,225,Wunderground v.1.15,2013-07-17 21:28:00,
2013-07-17 16:33:00,85.3,75.2,30.24,SSW,205,2.0,2.0,72,0.00,,,0.00,195,Wunderground v.1.15,2013-07-17 21:33:00,
2013-07-17 16:38:00,85.4,74.9,30.23,SSW,205,0.0,2.0,71,0.00,,,0.00,195,Wunderground v.1.15,2013-07-17 21:38:00,
2013-07-17 16:43:00,85.4,75.8,30.23,SSW,205,0.0,2.0,73,0.00,,,0.00,158,Wunderground v.1.15,2013-07-17 21:43:00,
2013-07-17 16:49:00,85.3,76.5,30.23,SSW,205,0.0,2.0,75,0.00,,,0.00,239,Wunderground v.1.15,2013-07-17 21:49:00,
2013-07-17 16:54:00,85.3,76.1,30.23,South,185,6.0,6.0,74,0.00,,,0.00,422,Wunderground v.1.15,2013-07-17 21:54:00,
2013-07-17 16:59:00,85.7,75.2,30.23,SSW,194,7.0,10.0,71,0.00,,,0.00,434,Wunderground v.1.15,2013-07-17 21:59:00,
2013-07-17 17:04:00,86.2,76.9,30.23,South,188,8.0,10.0,74,0.00,,,0.00,443,Wunderground v.1.15,2013-07-17 22:04:00,
2013-07-17 17:09:00,86.4,76.3,30.22,South,187,1.0,10.0,72,0.00,,,0.00,606,Wunderground v.1.15,2013-07-17 22:09:00,
2013-07-17 17:14:00,86.8,77.1,30.22,South,187,0.0,4.0,73,0.00,,,0.00,605,Wunderground v.1.15,2013-07-17 22:14:00,
2013-07-17 17:19:00,87.3,77.2,30.22,South,187,0.0,4.0,72,0.00,,,0.00,575,Wunderground v.1.15,2013-07-17 22:19:00,
2013-07-17 17:24:00,87.7,77.5,30.22,SSW,197,6.0,8.0,72,0.00,,,0.00,548,Wunderground v.1.15,2013-07-17 22:24:00,
2013-07-17 17:29:00,88.2,76.3,30.21,SSW,200,4.0,8.0,68,0.00,,,0.00,515,Wunderground v.1.15,2013-07-17 22:29:00,
2013-07-17 17:34:00,88.6,77.1,30.21,SSW,209,1.0,6.0,69,0.00,,,0.00,496,Wunderground v.1.15,2013-07-17 22:34:00,
2013-07-17 17:39:00,88.8,76.0,30.21,SSW,197,5.0,6.0,66,0.00,,,0.00,492,Wunderground v.1.15,2013-07-17 22:39:00,
2013-07-17 17:44:00,88.9,76.1,30.22,SSE,163,9.0,10.0,66,0.00,,,0.00,480,Wunderground v.1.15,2013-07-17 22:44:00,
2013-07-17 17:49:00,88.3,75.9,30.22,South,173,6.0,13.0,67,0.00,,,0.00,473,Wunderground v.1.15,2013-07-17 22:49:00,
2013-07-17 17:54:00,87.7,76.3,30.22,South,174,7.0,10.0,69,0.00,,,0.00,446,Wunderground v.1.15,2013-07-17 22:54:00,
2013-07-17 17:59:00,87.5,76.9,30.22,South,176,9.0,12.0,71,0.00,,,0.00,366,Wunderground v.1.15,2013-07-17 22:59:00,
2013-07-17 18:04:00,87.2,76.2,30.22,South,179,7.0,10.0,70,0.00,,,0.00,183,Wunderground v.1.15,2013-07-17 23:04:00,
2013-07-17 18:09:00,86.5,76.4,30.21,South,175,6.0,10.0,72,0.00,,,0.00,86,Wunderground v.1.15,2013-07-17 23:09:00,
2013-07-17 18:14:00,85.6,75.9,30.21,South,190,4.0,7.0,73,0.00,,,0.00,65,Wunderground v.1.15,2013-07-17 23:14:00,
2013-07-17 18:20:00,84.9,75.7,30.21,SSW,197,2.0,4.0,74,0.00,,,0.00,62,Wunderground v.1.15,2013-07-17 23:20:00,
2013-07-17 18:25:00,84.5,76.1,30.21,SSW,197,3.0,5.0,76,0.00,,,0.00,65,Wunderground v.1.15,2013-07-17 23:25:00,
2013-07-17 18:30:00,84.2,76.2,30.20,SSW,196,2.0,2.0,77,0.00,,,0.00,77,Wunderground v.1.15,2013-07-17 23:30:00,
2013-07-17 18:35:00,84.1,76.1,30.20,SSW,197,0.0,4.0,77,0.00,,,0.00,190,Wunderground v.1.15,2013-07-17 23:35:00,
2013-07-17 18:40:00,84.3,75.9,30.19,SSW,197,0.0,2.0,76,0.00,,,0.00,279,Wunderground v.1.15,2013-07-17 23:40:00,
2013-07-17 18:45:00,84.8,76.8,30.19,SSW,194,0.0,5.0,77,0.00,,,0.00,279,Wunderground v.1.15,2013-07-17 23:45:00,
2013-07-17 18:50:00,85.2,76.8,30.20,SSW,205,4.0,4.0,76,0.00,,,0.00,262,Wunderground v.1.15,2013-07-17 23:50:00,
2013-07-17 18:55:00,85.6,76.8,30.20,SSW,202,1.0,10.0,75,0.00,,,0.00,234,Wunderground v.1.15,2013-07-17 23:55:00,
2013-07-17 19:00:00,85.6,76.4,30.20,South,188,5.0,6.0,74,0.00,,,0.00,223,Wunderground v.1.15,2013-07-18 00:00:00,
2013-07-17 19:05:00,85.6,76.8,30.19,SSW,195,4.0,7.0,75,0.00,,,0.00,204,Wunderground v.1.15,2013-07-18 00:05:00,
2013-07-17 19:10:00,85.5,76.3,30.19,SW,223,5.0,8.0,74,0.00,,,0.00,185,Wunderground v.1.15,2013-07-18 00:10:00,
2013-07-17 19:15:00,85.2,75.6,30.19,SSW,211,3.0,8.0,73,0.00,,,0.00,167,Wunderground v.1.15,2013-07-18 00:15:00,
2013-07-17 19:20:00,85.1,76.3,30.19,SSW,211,0.0,3.0,75,0.00,,,0.00,74,Wunderground v.1.15,2013-07-18 00:20:00,
2013-07-17 19:25:00,84.8,76.8,30.19,SSW,209,2.0,4.0,77,0.00,,,0.00,65,Wunderground v.1.15,2013-07-18 00:25:00,
2013-07-17 19:30:00,84.4,76.8,30.19,SSW,209,1.0,3.0,78,0.00,,,0.00,58,Wunderground v.1.15,2013-07-18 00:30:00,
2013-07-17 19:35:00,83.9,75.9,30.19,SSW,209,1.0,5.0,77,0.00,,,0.00,51,Wunderground v.1.15,2013-07-18 00:35:00,
2013-07-17 19:40:00,83.6,75.6,30.19,SSW,208,4.0,4.0,77,0.00,,,0.00,46,Wunderground v.1.15,2013-07-18 00:40:00,
2013-07-17 19:45:00,83.4,75.4,30.19,SSW,206,2.0,4.0,77,0.00,,,0.00,40,Wunderground v.1.15,2013-07-18 00:45:00,
2013-07-17 19:50:00,83.3,74.1,30.19,SSW,202,4.0,5.0,74,0.00,,,0.00,37,Wunderground v.1.15,2013-07-18 00:50:00,
2013-07-17 19:55:00,83.2,73.6,30.19,SSW,202,3.0,5.0,73,0.00,,,0.00,33,Wunderground v.1.15,2013-07-18 00:55:00,
2013-07-17 20:00:00,83.2,73.2,30.19,SSW,203,3.0,5.0,72,0.00,,,0.00,28,Wunderground v.1.15,2013-07-18 01:00:00,
2013-07-17 20:05:00,83.1,73.1,30.19,SSW,203,0.0,5.0,72,0.00,,,0.00,25,Wunderground v.1.15,2013-07-18 01:05:00,
2013-07-17 20:10:00,83.0,73.4,30.19,SSW,203,0.0,1.0,73,0.00,,,0.00,21,Wunderground v.1.15,2013-07-18 01:10:00,
2013-07-17 20:15:00,82.8,73.7,30.19,SSW,203,0.0,1.0,74,0.00,,,0.00,18,Wunderground v.1.15,2013-07-18 01:15:00,
2013-07-17 20:20:00,82.6,73.5,30.19,SSW,203,0.0,1.0,74,0.00,,,0.00,14,Wunderground v.1.15,2013-07-18 01:20:00,
2013-07-17 20:25:00,82.4,73.7,30.19,SSW,203,0.0,1.0,75,0.00,,,0.00,11,Wunderground v.1.15,2013-07-18 01:25:00,
2013-07-17 20:30:00,82.1,73.4,30.19,SSW,203,0.0,0.0,75,0.00,,,0.00,9,Wunderground v.1.15,2013-07-18 01:30:00,
2013-07-17 20:35:00,82.0,73.3,30.19,SSW,203,0.0,1.0,75,0.00,,,0.00,5,Wunderground v.1.15,2013-07-18 01:35:00,
2013-07-17 20:41:00,81.7,73.0,30.19,SSW,203,0.0,1.0,75,0.00,,,0.00,0,Wunderground v.1.15,2013-07-18 01:41:00,
2013-07-17 20:45:00,81.5,73.2,30.19,SSW,203,0.0,2.0,76,0.00,,,0.00,0,Wunderground v.1.15,2013-07-18 01:45:00,
2013-07-17 20:51:00,81.3,73.8,30.19,SSW,203,0.0,0.0,78,0.00,,,0.00,0,Wunderground v.1.15,2013-07-18 01:51:00,
2013-07-17 20:56:00,80.8,73.7,30.19,SSW,203,0.0,0.0,79,0.00,,,0.00,0,Wunderground v.1.15,2013-07-18 01:56:00,
2013-07-17 21:01:00,80.2,73.5,30.19,SSW,203,0.0,0.0,80,0.00,,,0.00,0,Wunderground v.1.15,2013-07-18 02:01:00,
2013-07-17 21:06:00,79.7,73.3,30.19,SSW,203,0.0,0.0,81,0.00,,,0.00,0,Wunderground v.1.15,2013-07-18 02:06:00,
2013-07-17 21:11:00,79.2,73.2,30.19,SSW,203,0.0,0.0,82,0.00,,,0.00,0,Wunderground v.1.15,2013-07-18 02:11:00,
2013-07-17 21:16:00,78.8,73.2,30.19,SSW,203,0.0,0.0,83,0.00,,,0.00,0,Wunderground v.1.15,2013-07-18 02:16:00,
2013-07-17 21:21:00,78.5,72.9,30.19,SSW,203,0.0,0.0,83,0.00,,,0.00,0,Wunderground v.1.15,2013-07-18 02:21:00,
2013-07-17 21:26:00,78.2,72.6,30.20,SSW,203,0.0,0.0,83,0.00,,,0.00,0,Wunderground v.1.15,2013-07-18 02:26:00,
2013-07-17 21:31:00,78.0,72.8,30.20,SSW,203,0.0,0.0,84,0.00,,,0.00,0,Wunderground v.1.15,2013-07-18 02:31:00,
2013-07-17 21:36:00,77.9,72.7,30.20,SSW,203,0.0,0.0,84,0.00,,,0.00,0,Wunderground v.1.15,2013-07-18 02:36:00,
2013-07-17 21:41:00,77.7,72.5,30.20,SSW,203,0.0,0.0,84,0.00,,,0.00,0,Wunderground v.1.15,2013-07-18 02:41:00,
2013-07-17 21:46:00,77.5,72.6,30.20,SSW,203,0.0,0.0,85,0.00,,,0.00,0,Wunderground v.1.15,2013-07-18 02:46:00,
2013-07-17 21:51:00,77.4,72.5,30.20,SSW,203,0.0,0.0,85,0.00,,,0.00,0,Wunderground v.1.15,2013-07-18 02:51:00,
2013-07-17 21:56:00,77.1,72.6,30.20,SSW,203,0.0,1.0,86,0.00,,,0.00,0,Wunderground v.1.15,2013-07-18 02:56:00,
2013-07-17 22:01:00,77.0,72.5,30.20,SSW,203,1.0,4.0,86,0.00,,,0.00,0,Wunderground v.1.15,2013-07-18 03:01:00,
2013-07-17 22:06:00,76.9,72.7,30.20,SSW,203,1.0,4.0,87,0.00,,,0.00,0,Wunderground v.1.15,2013-07-18 03:06:00,
2013-07-17 22:11:00,76.9,72.7,30.21,SSW,203,1.0,2.0,87,0.00,,,0.00,0,Wunderground v.1.15,2013-07-18 03:11:00,
2013-07-17 22:16:00,77.2,72.7,30.20,SSW,203,0.0,2.0,86,0.00,,,0.00,0,Wunderground v.1.15,2013-07-18 03:16:00,
2013-07-17 22:21:00,77.2,72.3,30.20,SSW,203,0.0,1.0,85,0.00,,,0.00,0,Wunderground v.1.15,2013-07-18 03:21:00,
2013-07-17 22:26:00,77.2,72.3,30.21,SSW,203,0.0,1.0,85,0.00,,,0.00,0,Wunderground v.1.15,2013-07-18 03:26:00,
2013-07-17 22:32:00,77.2,72.7,30.21,SSW,203,0.0,1.0,86,0.00,,,0.00,0,Wunderground v.1.15,2013-07-18 03:32:00,
2013-07-17 22:37:00,77.3,72.4,30.21,SSW,203,0.0,1.0,85,0.00,,,0.00,0,Wunderground v.1.15,2013-07-18 03:37:00,
2013-07-17 22:42:00,77.2,72.3,30.20,SSW,203,0.0,0.0,85,0.00,,,0.00,0,Wunderground v.1.15,2013-07-18 03:42:00,
2013-07-17 22:47:00,77.1,72.6,30.20,SSW,203,0.0,0.0,86,0.00,,,0.00,0,Wunderground v.1.15,2013-07-18 03:47:00,
2013-07-17 22:52:00,76.8,72.3,30.20,SSW,203,0.0,1.0,86,0.00,,,0.00,0,Wunderground v.1.15,2013-07-18 03:52:00,
2013-07-17 22:57:00,76.5,72.3,30.20,SSW,203,0.0,1.0,87,0.00,,,0.00,0,Wunderground v.1.15,2013-07-18 03:57:00,
2013-07-17 23:01:00,76.3,72.5,30.20,SSW,203,0.0,1.0,88,0.00,,,0.00,0,Wunderground v.1.15,2013-07-18 04:01:00,
2013-07-17 23:06:00,76.1,72.3,30.20,SSW,203,0.0,1.0,88,0.00,,,0.00,0,Wunderground v.1.15,2013-07-18 04:06:00,
2013-07-17 23:11:00,76.1,72.3,30.20,SSW,203,0.0,0.0,88,0.00,,,0.00,0,Wunderground v.1.15,2013-07-18 04:11:00,
2013-07-17 23:16:00,76.0,72.2,30.20,SSW,203,0.0,1.0,88,0.00,,,0.00,0,Wunderground v.1.15,2013-07-18 04:16:00,
2013-07-17 23:22:00,76.0,72.5,30.20,SSW,203,0.0,0.0,89,0.00,,,0.00,0,Wunderground v.1.15,2013-07-18 04:22:00,
2013-07-17 23:27:00,75.8,72.3,30.20,SSW,203,0.0,1.0,89,0.00,,,0.00,0,Wunderground v.1.15,2013-07-18 04:27:00,
2013-07-17 23:32:00,75.8,72.3,30.20,SSW,203,0.0,1.0,89,0.00,,,0.00,0,Wunderground v.1.15,2013-07-18 04:32:00,
2013-07-17 23:37:00,75.8,72.7,30.20,SSW,203,0.0,1.0,90,0.00,,,0.00,0,Wunderground v.1.15,2013-07-18 04:37:00,
2013-07-17 23:42:00,75.8,72.7,30.20,SSW,203,0.0,2.0,90,0.00,,,0.00,0,Wunderground v.1.15,2013-07-18 04:42:00,
2013-07-17 23:47:00,75.8,73.0,30.20,SSW,203,1.0,2.0,91,0.00,,,0.00,0,Wunderground v.1.15,2013-07-18 04:47:00,
2013-07-17 23:52:00,76.0,73.2,30.20,SSW,203,0.0,1.0,91,0.00,,,0.00,0,Wunderground v.1.15,2013-07-18 04:52:00,
2013-07-17 23:57:00,76.0,73.2,30.20,SSW,203,0.0,2.0,91,0.00,,,0.00,0,Wunderground v.1.15,2013-07-18 04:57:00,